Wind_Speed
18 17 17 17 17 17 16 15 15 14 14 13 13 12 12 11 11 11 11 10 10 9 9 9 9 8 8 8 8 8 8 8 8 7 7 7 7 7 7 7 8 8 8
20 19 19 19 18 18 17 16 16 16 15 15 15 14 14 13 13 13 12 12 12 11 11 11 10 10 10 10 10 10 9 9 10 9 9 9 9 9 9 9 9 9 9
21 21 21 20 20 19 18 18 18 17 17 16 16 15 15 15 15 14 14 14 14 14 13 13 12 12 12 12 12 11 11 11 11 11 11 11 11 11 11 11 11 11 11
23 22 21 21 20 20 19 19 19 18 18 18 17 16 16 16 16 15 15 15 15 15 15 15 15 15 14 14 14 14 14 13 13 13 13 13 13 13 13 13 13 12 12
25 24 23 22 21 21 20 19 19 19 19 19 19 18 18 18 18 17 17 17 17 17 16 16 16 17 16 17 17 17 16 16 15 15 15 15 15 15 15 15 15 14 15
25 25 24 23 22 22 22 22 21 21 21 21 21 21 20 20 20 19 19 19 19 19 18 18 18 18 18 18 19 19 19 19 18 18 17 17 17 17 17 17 17 17 17
27 26 26 25 24 24 24 24 23 23 23 22 22 22 22 22 21 21 21 21 21 21 21 21 21 21 21 21 21 21 21 21 21 20 20 20 19 19 20 20 20 20 20
29 28 27 27 26 25 25 25 25 25 25 24 24 24 24 24 23 23 23 23 23 23 24 24 24 24 24 24 24 24 23 23 22 22 22 22 22 22 22 22 22 22 22
30 29 29 28 27 26 26 27 27 27 26 26 26 26 26 26 26 25 26 25 25 25 26 26 26 26 27 27 26 26 26 25 25 25 24 24 24 24 24 25 24 24 24
31 31 30 30 29 29 29 29 29 29 28 27 27 28 27 27 27 27 27 27 27 28 28 28 28 27 28 28 28 28 28 27 27 27 26 26 26 26 26 26 26 26 26
32 32 32 32 32 31 31 31 31 30 30 29 28 28 29 29 29 30 29 29 29 29 29 28 29 29 29 29 29 30 29 29 29 28 28 28 28 28 27 28 28 27 27
34 33 33 34 34 34 33 33 33 33 32 32 31 30 31 31 31 31 31 31 31 31 30 30 29 30 30 29 29 30 30 30 30 30 30 30 30 30 29 29 30 29 28
36 35 35 35 36 36 35 34 35 35 35 35 33 32 33 33 33 33 32 32 33 33 32 31 32 32 31 30 30 30 30 30 31 31 32 32 32 32 32 31 31 30 29
39 38 37 37 37 37 37 36 37 38 37 37 36 35 35 35 34 34 34 34 35 35 34 34 33 33 33 32 32 32 31 32 32 33 34 34 34 33 33 32 32 32 31
40 40 40 39 39 39 39 39 39 40 39 39 39 38 38 37 36 36 36 36 37 36 36 36 35 34 34 34 34 34 33 33 33 33 34 34 34 34 34 34 34 34 33
41 42 41 42 41 41 41 41 41 41 41 41 41 40 40 40 39 39 38 38 38 37 37 37 37 37 36 37 36 36 35 35 35 34 34 34 34 35 35 35 36 35 35
42 43 43 43 43 43 43 43 43 43 43 43 42 42 41 41 41 41 40 40 39 39 39 39 38 38 38 38 38 38 37 37 37 36 35 36 36 36 36 37 37 36 36
42 42 43 43 44 43 43 44 44 44 44 44 44 44 43 43 43 43 42 42 42 41 41 40 40 41 40 40 40 39 39 39 40 40 38 38 37 38 38 38 38 37 37
43 42 42 43 43 44 45 46 45 44 44 45 45 45 45 45 45 44 44 44 44 44 43 43 43 43 42 42 42 41 41 41 41 41 40 39 39 39 39 39 39 38 39
42 43 43 44 44 44 45 46 46 46 46 46 46 47 47 46 46 46 46 46 46 45 45 45 44 44 44 43 43 43 43 43 43 43 42 41 40 40 40 40 40 39 40
42 43 43 43 44 44 44 45 46 46 46 46 46 46 47 48 48 47 48 48 48 47 46 46 46 45 45 45 45 44 44 44 44 44 43 42 42 42 41 41 41 40 40
42 43 44 45 44 46 45 45 45 46 47 47 48 48 49 49 49 49 49 49 48 48 47 47 47 46 46 46 46 46 46 45 45 45 44 44 43 43 42 42 42 41 40
41 42 44 46 45 46 47 48 47 47 47 49 50 50 49 49 49 50 50 50 50 49 48 48 48 48 47 48 48 48 47 46 46 45 45 44 44 43 42 42 41 41 41
41 42 43 45 46 46 48 49 49 49 49 49 49 49 50 50 50 51 51 51 51 50 50 49 48 48 47 47 48 48 48 47 47 46 44 44 44 43 43 42 41 41 41
41 43 43 44 45 46 47 49 50 50 49 49 49 49 49 49 50 51 52 52 51 51 50 50 49 47 47 47 47 47 47 46 46 46 43 43 43 43 43 42 42 42 41
41 42 43 43 44 44 45 46 48 48 48 48 48 48 49 49 49 50 51 50 50 49 49 49 48 47 48 48 47 46 45 46 45 45 44 43 43 43 43 43 42 42 42
Wind_Direction
248 249 249 250 251 249 249 250 251 252 252 252 251 251 253 255 257 259 261 261 259 258 260 263 264 266 267 268 270 272 272 272 276 280 286 292 295 294 296 298 301 306 310
248 249 250 250 251 252 251 252 251 252 253 255 255 255 255 256 260 262 264 261 259 258 259 260 262 265 267 269 271 272 273 273 275 277 283 287 290 292 291 292 296 299 302
249 250 251 251 252 251 250 251 250 252 254 256 258 258 257 258 260 262 264 264 262 261 260 260 261 264 266 267 269 272 274 274 274 277 280 283 285 286 287 288 290 293 295
248 249 250 251 251 250 250 250 251 252 254 256 258 259 259 260 260 261 263 264 264 263 263 262 263 264 266 267 268 270 272 273 275 277 278 279 280 282 284 284 286 290 290
248 248 249 250 249 248 249 250 251 253 255 257 259 261 262 262 261 261 263 264 264 264 265 265 264 266 266 268 268 269 270 272 274 276 277 278 279 280 281 281 283 286 286
247 247 247 248 248 248 249 251 252 255 258 259 260 260 262 263 262 262 264 263 263 264 265 266 267 267 268 269 270 269 270 272 273 274 275 276 276 277 280 281 281 282 283
247 246 247 248 249 250 251 252 254 256 258 260 260 261 262 264 264 264 263 263 263 264 266 266 267 267 268 269 270 271 271 271 272 272 273 274 275 276 278 280 281 281 282
247 247 249 249 250 251 252 253 255 257 259 260 261 262 262 263 264 266 265 265 266 266 265 266 267 267 268 269 270 271 271 271 272 273 273 274 274 275 277 279 280 280 282
248 248 250 250 251 252 253 254 256 257 259 260 261 261 263 263 264 265 265 265 267 268 268 268 268 268 268 269 269 270 271 272 271 272 273 274 275 275 276 277 279 281 281
249 249 250 251 252 252 254 256 256 256 257 258 260 261 262 263 265 266 267 268 268 268 268 269 269 267 268 268 269 269 270 271 271 272 273 273 274 275 276 277 279 280 280
249 251 252 252 252 253 255 256 255 255 257 259 261 262 262 265 267 269 269 269 269 268 267 268 269 268 268 269 270 271 270 270 271 271 272 273 273 274 275 277 279 280 278
250 252 254 253 253 254 256 256 256 255 257 259 263 265 265 265 267 268 269 268 268 268 268 268 269 269 269 270 272 271 269 269 270 271 272 273 273 274 274 276 277 278 277
251 253 253 253 254 255 256 257 257 257 258 259 263 264 266 266 266 267 267 267 268 268 268 268 269 269 270 270 271 271 270 270 270 271 272 273 273 273 273 275 276 276 277
253 253 254 254 254 255 257 257 257 257 258 260 262 263 264 265 265 265 265 266 267 267 268 268 269 270 269 270 270 270 271 270 271 272 273 273 273 272 273 274 275 275 275
254 255 255 256 255 255 257 258 258 258 259 261 262 262 262 263 263 264 264 265 265 266 268 268 268 269 270 270 270 269 269 271 272 272 273 273 272 271 272 273 275 275 274
255 256 257 257 256 257 257 258 259 259 260 262 261 261 262 263 262 263 264 265 266 266 267 267 268 269 270 270 270 270 270 270 271 272 273 273 272 272 272 273 274 275 275
258 258 257 258 259 258 258 258 259 260 260 261 261 262 262 263 263 263 263 265 266 267 266 266 268 269 270 270 270 270 271 270 270 271 272 273 273 272 272 273 274 275 275
259 259 259 260 260 260 260 260 259 259 260 260 260 260 261 262 263 263 263 264 265 267 266 267 268 269 269 269 270 271 271 271 269 270 271 272 272 272 273 273 274 275 275
260 260 259 260 260 261 261 261 261 259 260 260 260 259 260 261 262 263 263 264 265 266 267 268 270 269 268 268 269 270 270 271 270 270 270 271 272 273 273 273 274 274 274
260 261 262 262 262 261 261 262 260 260 260 261 260 260 260 262 262 262 263 264 266 267 268 268 269 268 268 269 270 270 270 272 271 270 270 270 272 273 273 273 274 275 274
261 262 263 264 263 262 261 261 261 261 260 260 259 259 260 262 262 262 263 264 266 266 267 267 268 268 268 269 270 271 271 272 273 271 269 269 270 272 274 274 275 276 275
263 263 264 265 266 263 261 260 261 262 261 260 259 259 260 261 260 262 263 264 265 266 266 266 267 267 268 269 271 272 272 271 272 272 270 268 270 271 273 274 275 277 276
265 266 266 266 267 264 262 262 262 262 262 262 260 259 260 260 261 262 262 263 263 265 265 265 266 266 267 268 270 271 272 271 272 272 271 269 269 270 272 274 276 277 276
267 268 267 267 266 265 263 263 263 263 263 262 261 260 260 260 261 262 263 263 263 264 264 263 263 264 266 267 269 271 272 272 272 272 270 270 270 271 272 273 274 275 277
270 270 269 268 266 265 264 263 263 263 263 263 262 261 262 261 261 262 262 262 263 263 263 264 263 262 264 266 268 269 270 271 272 271 270 270 270 270 271 273 274 275 275
272 271 270 269 268 266 265 265 264 263 263 263 262 262 263 263 262 263 262 262 263 262 261 262 262 263 265 266 266 268 269 271 271 271 269 269 268 269 270 272 274 274 275
Height
5839 5841 5841 5842 5843 5844 5845 5846 5847 5847 5848 5848 5849 5849 5849 5850 5850 5850 5850 5850 5851 5851 5851 5852 5852 5852 5852 5852 5852 5852 5852 5853 5853 5853 5853 5853 5853 5853 5852 5852 5852 5852 5851
5836 5837 5838 5839 5840 5841 5842 5843 5844 5845 5846 5846 5846 5847 5847 5847 5848 5848 5848 5848 5849 5849 5849 5850 5850 5850 5850 5850 5850 5850 5850 5851 5851 5851 5851 5851 5851 5851 5851 5850 5850 5850 5850
5832 5834 5835 5836 5837 5838 5839 5840 5841 5842 5843 5843 5844 5844 5844 5844 5845 5845 5845 5845 5846 5847 5847 5847 5847 5848 5848 5848 5848 5848 5848 5848 5848 5848 5849 5849 5849 5848 5848 5848 5848 5848 5847
5828 5830 5831 5832 5833 5835 5836 5837 5838 5839 5839 5840 5840 5841 5841 5841 5842 5842 5842 5842 5843 5843 5844 5844 5844 5845 5845 5845 5845 5845 5846 5846 5846 5846 5846 5846 5846 5846 5846 5846 5845 5845 5845
5824 5825 5827 5828 5829 5831 5832 5833 5834 5835 5836 5837 5837 5838 5838 5838 5838 5838 5839 5839 5839 5840 5840 5841 5841 5841 5842 5842 5842 5842 5842 5842 5842 5843 5843 5843 5843 5843 5843 5842 5842 5842 5842
5819 5821 5822 5824 5825 5827 5828 5829 5830 5831 5832 5833 5833 5834 5834 5834 5835 5835 5835 5835 5835 5836 5836 5837 5837 5837 5838 5838 5838 5838 5838 5838 5839 5839 5839 5840 5840 5840 5839 5839 5839 5838 5838
5813 5815 5818 5819 5821 5822 5823 5824 5826 5827 5828 5828 5829 5829 5830 5830 5830 5830 5830 5831 5831 5831 5832 5832 5832 5833 5833 5833 5833 5834 5834 5834 5834 5835 5835 5835 5836 5835 5835 5835 5835 5834 5834
5808 5810 5812 5814 5816 5817 5818 5820 5821 5822 5823 5823 5824 5824 5825 5825 5825 5826 5826 5826 5826 5826 5827 5827 5827 5827 5828 5828 5828 5828 5829 5829 5829 5830 5830 5830 5831 5831 5831 5831 5830 5830 5830
5802 5805 5806 5808 5810 5811 5813 5814 5815 5816 5817 5818 5818 5819 5819 5820 5820 5820 5820 5820 5820 5821 5821 5821 5821 5821 5821 5822 5822 5823 5823 5823 5824 5824 5825 5825 5825 5825 5825 5825 5825 5825 5824
5796 5799 5800 5802 5804 5805 5806 5808 5809 5810 5810 5811 5812 5812 5813 5814 5814 5814 5814 5814 5815 5815 5815 5814 5814 5814 5815 5815 5816 5816 5816 5817 5817 5818 5818 5819 5819 5819 5819 5819 5819 5819 5819
5790 5792 5794 5796 5798 5799 5800 5801 5801 5803 5804 5804 5805 5805 5806 5807 5808 5808 5808 5808 5808 5808 5808 5808 5808 5808 5808 5808 5809 5809 5810 5810 5810 5811 5812 5812 5812 5812 5813 5813 5813 5812 5812
5783 5785 5788 5789 5791 5792 5793 5794 5794 5795 5797 5797 5798 5799 5799 5800 5801 5801 5801 5800 5801 5801 5801 5801 5801 5801 5801 5801 5801 5802 5802 5803 5803 5804 5805 5805 5805 5805 5805 5805 5806 5805 5805
5775 5778 5780 5782 5784 5785 5785 5786 5787 5788 5789 5790 5791 5792 5792 5793 5793 5793 5793 5793 5793 5794 5793 5793 5794 5794 5794 5794 5794 5794 5795 5795 5796 5796 5797 5797 5798 5798 5798 5798 5798 5798 5798
5768 5770 5772 5774 5776 5777 5778 5779 5780 5781 5782 5783 5783 5784 5784 5785 5785 5785 5786 5786 5786 5786 5786 5786 5786 5786 5786 5786 5786 5787 5787 5787 5788 5788 5789 5789 5789 5789 5790 5790 5790 5790 5790
5759 5762 5764 5765 5767 5769 5769 5770 5771 5773 5774 5774 5775 5775 5776 5776 5777 5777 5778 5778 5778 5778 5778 5778 5778 5778 5778 5778 5778 5778 5779 5779 5780 5780 5780 5781 5781 5781 5781 5782 5782 5782 5782
5751 5752 5754 5756 5758 5759 5760 5761 5762 5763 5764 5765 5766 5766 5767 5767 5768 5768 5769 5769 5769 5769 5769 5769 5769 5769 5770 5770 5770 5770 5770 5770 5771 5772 5772 5772 5772 5772 5772 5773 5773 5773 5774
5742 5743 5745 5747 5748 5749 5751 5751 5752 5753 5754 5755 5756 5757 5757 5758 5758 5759 5759 5760 5760 5760 5760 5760 5760 5760 5761 5761 5761 5761 5761 5761 5762 5763 5763 5764 5763 5764 5764 5764 5764 5764 5765
5732 5733 5735 5736 5738 5739 5740 5741 5742 5743 5744 5744 5745 5746 5747 5748 5748 5749 5750 5750 5750 5750 5750 5751 5751 5751 5751 5751 5751 5752 5752 5752 5752 5753 5754 5754 5754 5755 5755 5755 5755 5755 5755
5722 5723 5725 5726 5727 5728 5729 5730 5731 5732 5733 5734 5735 5736 5737 5738 5738 5739 5739 5740 5740 5740 5740 5741 5741 5741 5741 5741 5741 5742 5742 5742 5742 5743 5744 5744 5745 5745 5745 5745 5745 5745 5746
5712 5713 5715 5716 5716 5717 5717 5719 5720 5721 5722 5723 5723 5724 5726 5726 5727 5728 5728 5729 5729 5730 5730 5730 5730 5730 5731 5731 5732 5732 5733 5732 5733 5733 5734 5734 5735 5735 5735 5735 5735 5735 5735
5701 5702 5704 5704 5705 5705 5706 5707 5708 5710 5711 5711 5712 5712 5714 5715 5715 5716 5717 5718 5718 5719 5719 5719 5720 5720 5721 5721 5722 5722 5723 5722 5722 5723 5723 5724 5725 5725 5725 5725 5724 5724 5725
5690 5691 5692 5693 5693 5693 5694 5695 5696 5698 5699 5700 5701 5701 5702 5703 5704 5705 5705 5706 5707 5707 5707 5708 5709 5710 5710 5711 5711 5711 5712 5713 5712 5712 5713 5714 5714 5715 5715 5714 5714 5714 5714
5678 5679 5680 5681 5681 5681 5682 5683 5684 5685 5686 5687 5688 5689 5690 5691 5692 5693 5694 5694 5695 5695 5696 5697 5697 5698 5699 5700 5700 5700 5700 5701 5702 5703 5703 5703 5704 5705 5705 5704 5704 5704 5704
5667 5668 5668 5668 5669 5669 5669 5670 5671 5673 5674 5675 5676 5677 5678 5678 5679 5680 5680 5681 5682 5683 5684 5685 5685 5686 5687 5688 5688 5688 5688 5689 5690 5692 5693 5693 5694 5694 5695 5694 5694 5693 5693
5656 5656 5656 5656 5656 5656 5656 5657 5658 5659 5661 5662 5663 5664 5665 5666 5666 5667 5667 5668 5669 5670 5671 5672 5673 5674 5675 5676 5676 5676 5677 5677 5678 5680 5682 5684 5684 5684 5684 5684 5684 5683 5683
5645 5644 5644 5644 5644 5643 5643 5644 5644 5646 5647 5649 5650 5651 5652 5653 5653 5653 5654 5655 5656 5657 5658 5660 5661 5662 5663 5664 5665 5665 5666 5667 5668 5669 5671 5673 5674 5674 5674 5674 5673 5673 5673